AAL4809 KCMH-KDFW

Flight info

Callsign AAL4809
Flight time N/A
Altitude 36000
Route PKACZ TARRY PXV BLANS ZAVEL RRNET SEEVR4
Aircraft A20N/M-SDE2E3FGHIRWXY/LB1

Departure

Time 2026-05-09 01:24
Airport John Glenn Columbus International Airport (KCMH)

Arrival

Time N/A
Airport Dallas Fort Worth International Airport (KDFW)
Time Latitude Longitude Altitude Speed Heading
2026-05-09 00:49 39.99650 -82.88399 819 ft 0 kts
2026-05-09 01:08 39.99644 -82.88400 819 ft 1 kts
2026-05-09 01:09 39.99635 -82.88401 815 ft 1 kts
2026-05-09 01:09 39.99627 -82.88402 812 ft 1 kts
2026-05-09 01:09 39.99619 -82.88404 816 ft 1 kts 13°
2026-05-09 01:09 39.99611 -82.88406 818 ft 1 kts 20°
2026-05-09 01:10 39.99603 -82.88410 818 ft 1 kts 28°
2026-05-09 01:10 39.99596 -82.88415 817 ft 1 kts 39°
2026-05-09 01:10 39.99590 -82.88423 813 ft 1 kts 73°
2026-05-09 01:10 39.99589 -82.88430 814 ft 0 kts 94°
2026-05-09 01:13 39.99588 -82.88413 813 ft 4 kts 94°
2026-05-09 01:13 39.99587 -82.88390 813 ft 0 kts 94°
2026-05-09 01:14 39.99587 -82.88377 814 ft 3 kts 86°
2026-05-09 01:14 39.99603 -82.88324 814 ft 3 kts 31°
2026-05-09 01:14 39.99616 -82.88321 818 ft 3 kts 19°
2026-05-09 01:15 39.99639 -82.88300 813 ft 5 kts 61°
2026-05-09 01:15 39.99631 -82.88276 818 ft 3 kts 119°
2026-05-09 01:15 39.99619 -82.88238 815 ft 6 kts 109°
2026-05-09 01:15 39.99605 -82.88177 818 ft 8 kts 104°
2026-05-09 01:16 39.99601 -82.88099 816 ft 9 kts 87°
2026-05-09 01:16 39.99600 -82.88011 821 ft 10 kts 93°
2026-05-09 01:16 39.99624 -82.87929 823 ft 10 kts 38°
2026-05-09 01:17 39.99786 -82.87899 823 ft 14 kts
2026-05-09 01:17 39.99891 -82.87899 822 ft 16 kts 346°
2026-05-09 01:17 39.99997 -82.87944 818 ft 4 kts
2026-05-09 01:17 39.99998 -82.87944 818 ft 0 kts
2026-05-09 01:20 40.00001 -82.87944 818 ft 2 kts
2026-05-09 01:20 40.00025 -82.87943 817 ft 5 kts
2026-05-09 01:21 40.00068 -82.87942 817 ft 7 kts
2026-05-09 01:21 40.00076 -82.87941 819 ft 0 kts
2026-05-09 01:22 40.00084 -82.87941 817 ft 2 kts
2026-05-09 01:22 40.00099 -82.87941 815 ft 2 kts 358°
2026-05-09 01:22 40.00118 -82.87942 819 ft 3 kts 358°
2026-05-09 01:23 40.00137 -82.87943 819 ft 3 kts 358°
2026-05-09 01:23 40.00152 -82.87947 819 ft 0 kts 334°
2026-05-09 01:23 40.00155 -82.87952 819 ft 3 kts 311°
2026-05-09 01:23 40.00164 -82.88032 818 ft 29 kts 278°
2026-05-09 01:24 40.00201 -82.88641 824 ft 107 kts 274°
2026-05-09 01:24 40.00262 -82.89895 924 ft 162 kts 273°
2026-05-09 01:24 40.00338 -82.91537 1243 ft 202 kts 272°
2026-05-09 01:24 40.00411 -82.93566 1488 ft 246 kts 272°
2026-05-09 01:25 40.00472 -82.95921 1895 ft 271 kts 271°
2026-05-09 01:25 40.00517 -82.98517 2224 ft 300 kts 270°
2026-05-09 01:25 40.00569 -83.01331 2596 ft 325 kts 272°
2026-05-09 01:25 40.00574 -83.04303 3505 ft 322 kts 265°
2026-05-09 01:26 40.00406 -83.07056 4280 ft 286 kts 263°
2026-05-09 01:26 40.00284 -83.09497 4663 ft 256 kts 264°
2026-05-09 01:26 40.00231 -83.11792 4835 ft 251 kts 266°
2026-05-09 01:26 40.00235 -83.14084 5331 ft 252 kts 267°
2026-05-09 01:27 40.00274 -83.16323 6437 ft 247 kts 268°
2026-05-09 01:27 40.00327 -83.18580 7447 ft 248 kts 269°
2026-05-09 01:27 40.00386 -83.20829 8495 ft 247 kts 269°
2026-05-09 01:27 40.00445 -83.23034 9524 ft 247 kts 270°
2026-05-09 01:28 40.00502 -83.25289 10388 ft 252 kts 271°
2026-05-09 01:28 40.00562 -83.27672 10734 ft 275 kts 271°
2026-05-09 01:28 40.00629 -83.30272 11025 ft 297 kts 271°
2026-05-09 01:28 40.00701 -83.33003 11702 ft 304 kts 271°
2026-05-09 01:29 40.00773 -83.35795 12499 ft 308 kts 272°
2026-05-09 01:29 40.00844 -83.38575 13296 ft 313 kts 272°
2026-05-09 01:29 40.00917 -83.41458 14044 ft 317 kts 272°
2026-05-09 01:29 40.00991 -83.44344 14785 ft 320 kts 272°
2026-05-09 01:30 40.01065 -83.47252 15530 ft 322 kts 272°
2026-05-09 01:30 40.01138 -83.50186 16273 ft 324 kts 272°
2026-05-09 01:30 40.01210 -83.53116 16977 ft 327 kts 272°
2026-05-09 01:30 40.01283 -83.56095 17673 ft 331 kts 272°
2026-05-09 01:31 40.01435 -83.59121 18365 ft 334 kts 277°
2026-05-09 01:31 40.01804 -83.62092 19006 ft 335 kts 278°
2026-05-09 01:31 40.02189 -83.65101 19698 ft 336 kts 278°
2026-05-09 01:31 40.02568 -83.68117 20362 ft 337 kts 278°
2026-05-09 01:32 40.02940 -83.71113 20976 ft 339 kts 278°
2026-05-09 01:32 40.03318 -83.74163 21633 ft 340 kts 278°
2026-05-09 01:32 40.03695 -83.77208 22269 ft 342 kts 277°
2026-05-09 01:32 40.04075 -83.80293 22735 ft 344 kts 277°
2026-05-09 01:33 40.04458 -83.83404 22884 ft 345 kts 277°
2026-05-09 01:33 40.04828 -83.86473 22904 ft 344 kts 276°
2026-05-09 01:33 40.04863 -83.89590 22915 ft 345 kts 264°
2026-05-09 01:33 40.04332 -83.92664 23368 ft 349 kts 253°
2026-05-09 01:34 40.03273 -83.95551 23992 ft 354 kts 242°
2026-05-09 01:34 40.01905 -83.98200 24484 ft 357 kts 241°
2026-05-09 01:34 40.00499 -84.00894 24967 ft 359 kts 241°
2026-05-09 01:34 39.99082 -84.03610 25433 ft 361 kts 241°
2026-05-09 01:35 39.97686 -84.06287 25920 ft 363 kts 241°
2026-05-09 01:35 39.96251 -84.09036 26380 ft 365 kts 241°
2026-05-09 01:35 39.94811 -84.11794 26815 ft 368 kts 241°
2026-05-09 01:35 39.93362 -84.14564 27249 ft 370 kts 240°
2026-05-09 01:36 39.91911 -84.17336 27665 ft 372 kts 240°
2026-05-09 01:36 39.90441 -84.20139 28081 ft 374 kts 240°
2026-05-09 01:36 39.88991 -84.22901 28467 ft 376 kts 240°
2026-05-09 01:36 39.87505 -84.25729 28841 ft 378 kts 240°
2026-05-09 01:37 39.86013 -84.28567 29220 ft 380 kts 240°
2026-05-09 01:37 39.84511 -84.31420 29556 ft 382 kts 240°
2026-05-09 01:37 39.83008 -84.34275 29929 ft 384 kts 240°
2026-05-09 01:37 39.81487 -84.37160 30262 ft 386 kts 240°
2026-05-09 01:38 39.79983 -84.40007 30626 ft 386 kts 240°
2026-05-09 01:38 39.78461 -84.42888 30991 ft 386 kts 240°
2026-05-09 01:38 39.76938 -84.45766 31431 ft 384 kts 240°
2026-05-09 01:38 39.75426 -84.48621 31937 ft 381 kts 240°
2026-05-09 01:39 39.73948 -84.51407 32451 ft 377 kts 241°
2026-05-09 01:39 39.72467 -84.54198 32808 ft 373 kts 241°
2026-05-09 01:39 39.70993 -84.56976 32918 ft 371 kts 241°
2026-05-09 01:39 39.69521 -84.59748 32927 ft 370 kts 241°
2026-05-09 01:40 39.66595 -84.65257 32923 ft 370 kts 241°
2026-05-09 01:40 39.63678 -84.70736 32912 ft 370 kts 241°
2026-05-09 01:41 39.60747 -84.76230 32915 ft 371 kts 241°
2026-05-09 01:41 39.57797 -84.81750 33308 ft 371 kts 241°
2026-05-09 01:42 39.56326 -84.84493 33814 ft 367 kts 241°
2026-05-09 01:42 39.54897 -84.87157 34216 ft 364 kts 241°
2026-05-09 01:42 39.53448 -84.89860 34507 ft 363 kts 241°
2026-05-09 01:42 39.52007 -84.92550 34780 ft 362 kts 241°
2026-05-09 01:43 39.50566 -84.95235 35057 ft 362 kts 241°
2026-05-09 01:43 39.49146 -84.97877 35326 ft 361 kts 241°
2026-05-09 01:43 39.47706 -85.00556 35580 ft 361 kts 241°
2026-05-09 01:43 39.46271 -85.03223 35814 ft 360 kts 241°
2026-05-09 01:44 39.44855 -85.05849 35922 ft 359 kts 241°
2026-05-09 01:44 39.43423 -85.08504 35926 ft 358 kts 241°
2026-05-09 01:44 39.40567 -85.13796 35931 ft 358 kts 241°
2026-05-09 01:45 39.37704 -85.19090 35935 ft 358 kts 241°
2026-05-09 01:45 39.34858 -85.24345 35934 ft 358 kts 240°
2026-05-09 01:46 39.32012 -85.29589 35932 ft 358 kts 240°
2026-05-09 01:46 39.29161 -85.34835 35932 ft 357 kts 240°
2026-05-09 01:47 39.26298 -85.40095 35923 ft 357 kts 240°
2026-05-09 01:47 39.23454 -85.45312 35918 ft 357 kts 240°
2026-05-09 01:48 39.20598 -85.50542 35915 ft 357 kts 240°
2026-05-09 01:48 39.17733 -85.55780 35901 ft 356 kts 240°
2026-05-09 01:49 39.14885 -85.60979 35895 ft 356 kts 240°
2026-05-09 01:49 39.12032 -85.66177 35898 ft 356 kts 240°
2026-05-09 01:50 39.09159 -85.71404 35898 ft 356 kts 240°
2026-05-09 01:50 39.06296 -85.76603 35897 ft 356 kts 240°
2026-05-09 01:51 39.03434 -85.81795 35896 ft 356 kts 240°
2026-05-09 01:51 39.00552 -85.87012 35896 ft 356 kts 240°
2026-05-09 01:52 38.97693 -85.92180 35895 ft 356 kts 240°
2026-05-09 01:52 38.94803 -85.97395 35889 ft 356 kts 240°
2026-05-09 01:53 38.91940 -86.02553 35886 ft 356 kts 240°
2026-05-09 01:53 38.89054 -86.07743 35889 ft 356 kts 240°
2026-05-09 01:54 38.86184 -86.12897 35893 ft 356 kts 240°
2026-05-09 01:54 38.83287 -86.18091 35904 ft 356 kts 240°
2026-05-09 01:55 38.80409 -86.23243 35887 ft 357 kts 240°
2026-05-09 01:55 38.77515 -86.28417 35905 ft 357 kts 240°
2026-05-09 01:56 38.74633 -86.33560 35910 ft 357 kts 240°
2026-05-09 01:56 38.71720 -86.38749 35899 ft 357 kts 240°
2026-05-09 01:57 38.68828 -86.43894 35897 ft 357 kts 239°
2026-05-09 01:57 38.65935 -86.49032 35902 ft 357 kts 239°
2026-05-09 01:58 38.63509 -86.53334 35907 ft 357 kts 239°
2026-05-09 01:58 38.60115 -86.59342 35915 ft 357 kts 239°
2026-05-09 01:59 38.57697 -86.63616 35905 ft 356 kts 239°
2026-05-09 01:59 38.54785 -86.68757 35906 ft 356 kts 239°
2026-05-09 02:00 38.51881 -86.73874 35900 ft 356 kts 239°
2026-05-09 02:00 38.48987 -86.78966 35905 ft 355 kts 239°
2026-05-09 02:01 38.46070 -86.84091 35910 ft 356 kts 239°
2026-05-09 02:01 38.43168 -86.89181 35898 ft 357 kts 239°
2026-05-09 02:02 38.40239 -86.94311 35893 ft 356 kts 239°
2026-05-09 02:02 38.37326 -86.99405 35897 ft 357 kts 239°
2026-05-09 02:03 38.34389 -87.04533 35903 ft 358 kts 239°
2026-05-09 02:03 38.31447 -87.09661 35901 ft 358 kts 239°
2026-05-09 02:04 38.28519 -87.14755 35902 ft 358 kts 239°
2026-05-09 02:04 38.25560 -87.19897 35905 ft 359 kts 239°
2026-05-09 02:05 38.22629 -87.24983 35901 ft 359 kts 239°
2026-05-09 02:05 38.19663 -87.30120 35897 ft 359 kts 239°
2026-05-09 02:06 38.16722 -87.35206 35892 ft 359 kts 239°
2026-05-09 02:07 38.12282 -87.42870 35891 ft 359 kts 239°
2026-05-09 02:07 38.09319 -87.47974 35890 ft 359 kts 239°
2026-05-09 02:08 38.06358 -87.53069 35889 ft 359 kts 238°
2026-05-09 02:08 38.03378 -87.58187 35884 ft 359 kts 238°
2026-05-09 02:09 38.00413 -87.63272 35884 ft 359 kts 238°
2026-05-09 02:09 37.97449 -87.68351 35884 ft 359 kts 238°
2026-05-09 02:10 37.94476 -87.73440 35889 ft 359 kts 238°
2026-05-09 02:10 37.91674 -87.78637 35890 ft 357 kts 243°
2026-05-09 02:11 37.89161 -87.84066 35887 ft 357 kts 243°
2026-05-09 02:11 37.86646 -87.89485 35891 ft 357 kts 243°
2026-05-09 02:12 37.84127 -87.94874 35888 ft 357 kts 243°
2026-05-09 02:12 37.81591 -88.00283 35888 ft 358 kts 243°
2026-05-09 02:13 37.79056 -88.05681 35890 ft 358 kts 243°
2026-05-09 02:13 37.76501 -88.11115 35885 ft 358 kts 243°
2026-05-09 02:14 37.73961 -88.16506 35896 ft 359 kts 243°
2026-05-09 02:14 37.71412 -88.21906 35891 ft 359 kts 243°
2026-05-09 02:15 37.68857 -88.27313 35894 ft 359 kts 243°
2026-05-09 02:15 37.66283 -88.32749 35892 ft 359 kts 243°
2026-05-09 02:16 37.63713 -88.38166 35888 ft 359 kts 243°
2026-05-09 02:16 37.61144 -88.43576 35890 ft 359 kts 243°
2026-05-09 02:17 37.58578 -88.48968 35888 ft 359 kts 243°
2026-05-09 02:17 37.56011 -88.54354 35887 ft 359 kts 243°
2026-05-09 02:18 37.53424 -88.59774 35885 ft 359 kts 243°
2026-05-09 02:18 37.51028 -88.65263 35883 ft 358 kts 246°
2026-05-09 02:19 37.48830 -88.70860 35876 ft 358 kts 246°
2026-05-09 02:19 37.46631 -88.76466 35876 ft 358 kts 246°
2026-05-09 02:20 37.44414 -88.82114 35871 ft 358 kts 246°
2026-05-09 02:20 37.42221 -88.87690 35873 ft 358 kts 246°
2026-05-09 02:21 37.39998 -88.93333 35871 ft 358 kts 246°
2026-05-09 02:21 37.37795 -88.98915 35876 ft 359 kts 246°
2026-05-09 02:22 37.35566 -89.04549 35878 ft 359 kts 246°
2026-05-09 02:22 37.33345 -89.10149 35876 ft 359 kts 246°
2026-05-09 02:23 37.31104 -89.15787 35877 ft 360 kts 246°
2026-05-09 02:23 37.28877 -89.21381 35881 ft 360 kts 246°
2026-05-09 02:24 37.26622 -89.27037 35876 ft 360 kts 246°
2026-05-09 02:24 37.24372 -89.32669 35881 ft 361 kts 246°
2026-05-09 02:25 37.22123 -89.38288 35874 ft 361 kts 246°
2026-05-09 02:25 37.19859 -89.43936 35880 ft 362 kts 246°
2026-05-09 02:26 37.17610 -89.49535 35882 ft 362 kts 246°
2026-05-09 02:26 37.15337 -89.55183 35871 ft 362 kts 246°
2026-05-09 02:27 37.13061 -89.60832 35884 ft 362 kts 246°
2026-05-09 02:27 37.10789 -89.66457 35864 ft 363 kts 246°
2026-05-09 02:28 37.08505 -89.72104 35869 ft 363 kts 246°
2026-05-09 02:28 37.06231 -89.77713 35883 ft 362 kts 246°
2026-05-09 02:29 37.03941 -89.83355 35889 ft 362 kts 246°
2026-05-09 02:29 37.01669 -89.88941 35880 ft 362 kts 246°
2026-05-09 02:30 36.99371 -89.94582 35877 ft 362 kts 246°
2026-05-09 02:30 36.97093 -90.00162 35876 ft 362 kts 246°
2026-05-09 02:31 36.94794 -90.05788 35880 ft 361 kts 246°
2026-05-09 02:31 36.92517 -90.11346 35880 ft 361 kts 246°
2026-05-09 02:32 36.90215 -90.16957 35876 ft 361 kts 246°
2026-05-09 02:32 36.87934 -90.22508 35877 ft 361 kts 246°
2026-05-09 02:33 36.85634 -90.28094 35875 ft 360 kts 246°
2026-05-09 02:33 36.83342 -90.33652 35872 ft 360 kts 246°
2026-05-09 02:34 36.81055 -90.39189 35875 ft 360 kts 246°
2026-05-09 02:34 36.78751 -90.44756 35873 ft 360 kts 246°
2026-05-09 02:35 36.76464 -90.50273 35873 ft 360 kts 246°
2026-05-09 02:35 36.74153 -90.55838 35878 ft 360 kts 246°
2026-05-09 02:36 36.71856 -90.61361 35878 ft 360 kts 246°
2026-05-09 02:36 36.69548 -90.66900 35881 ft 359 kts 246°
2026-05-09 02:37 36.67249 -90.72408 35879 ft 359 kts 246°
2026-05-09 02:37 36.64938 -90.77936 35882 ft 359 kts 246°
2026-05-09 02:38 36.62641 -90.83420 35881 ft 358 kts 246°
2026-05-09 02:38 36.60338 -90.88911 35880 ft 358 kts 246°
2026-05-09 02:39 36.58027 -90.94410 35877 ft 358 kts 246°
2026-05-09 02:39 36.55718 -90.99899 35879 ft 357 kts 246°
2026-05-09 02:40 36.53423 -91.05341 35878 ft 356 kts 246°
2026-05-09 02:40 36.51116 -91.10805 35878 ft 356 kts 246°
2026-05-09 02:41 36.48822 -91.16229 35876 ft 355 kts 246°
2026-05-09 02:41 36.46512 -91.21679 35874 ft 355 kts 246°
2026-05-09 02:42 36.44220 -91.27079 35871 ft 355 kts 246°
2026-05-09 02:42 36.41910 -91.32513 35880 ft 355 kts 246°
2026-05-09 02:43 36.39606 -91.37925 35882 ft 357 kts 246°
2026-05-09 02:43 36.37286 -91.43364 35883 ft 356 kts 246°
2026-05-09 02:44 36.34969 -91.48785 35882 ft 357 kts 246°
2026-05-09 02:44 36.32645 -91.54217 35881 ft 358 kts 246°
2026-05-09 02:45 36.30298 -91.59693 35889 ft 359 kts 246°
2026-05-09 02:45 36.27964 -91.65128 35887 ft 357 kts 246°
2026-05-09 02:46 36.26015 -91.69660 35881 ft 357 kts 246°
2026-05-09 02:46 36.23286 -91.75994 35889 ft 358 kts 246°
2026-05-09 02:47 36.21325 -91.80540 35883 ft 358 kts 246°
2026-05-09 02:47 36.18986 -91.85954 35884 ft 358 kts 246°
2026-05-09 02:48 36.16629 -91.91400 35880 ft 358 kts 246°
2026-05-09 02:48 36.14284 -91.96808 35882 ft 358 kts 246°
2026-05-09 02:49 36.11920 -92.02252 35884 ft 358 kts 246°
2026-05-09 02:49 36.09571 -92.07652 35888 ft 359 kts 246°
2026-05-09 02:50 36.07202 -92.13092 35883 ft 359 kts 246°
2026-05-09 02:50 36.04837 -92.18510 35884 ft 359 kts 246°
2026-05-09 02:51 36.02465 -92.23936 35886 ft 359 kts 246°
2026-05-09 02:51 36.00092 -92.29356 35885 ft 359 kts 246°
2026-05-09 02:52 35.97706 -92.34798 35889 ft 359 kts 246°
2026-05-09 02:52 35.95337 -92.40192 35880 ft 360 kts 246°
2026-05-09 02:53 35.92943 -92.45634 35883 ft 360 kts 246°
2026-05-09 02:53 35.90559 -92.51042 35898 ft 360 kts 246°
2026-05-09 02:54 35.88152 -92.56498 35894 ft 361 kts 246°
2026-05-09 02:54 35.85754 -92.61920 35901 ft 361 kts 246°
2026-05-09 02:55 35.83345 -92.67361 35895 ft 361 kts 246°
2026-05-09 02:55 35.80947 -92.72769 35890 ft 361 kts 246°
2026-05-09 02:56 35.78538 -92.78194 35891 ft 362 kts 246°
2026-05-09 02:56 35.76115 -92.83638 35893 ft 363 kts 246°
2026-05-09 02:57 35.73680 -92.89104 35886 ft 362 kts 246°
2026-05-09 02:57 35.71259 -92.94524 35884 ft 361 kts 246°
2026-05-09 02:58 35.68850 -92.99913 35876 ft 361 kts 246°
2026-05-09 02:58 35.66418 -93.05346 35882 ft 362 kts 245°
2026-05-09 02:59 35.63994 -93.10749 35878 ft 361 kts 246°
2026-05-09 02:59 35.61570 -93.16144 35867 ft 360 kts 246°
2026-05-09 03:00 35.59157 -93.21505 35864 ft 359 kts 246°
2026-05-09 03:00 35.56731 -93.26889 35887 ft 361 kts 246°
2026-05-09 03:01 35.54299 -93.32278 35888 ft 361 kts 245°
2026-05-09 03:01 35.51857 -93.37679 35881 ft 363 kts 245°
2026-05-09 03:02 35.49409 -93.43083 35872 ft 362 kts 245°
2026-05-09 03:02 35.46944 -93.48517 35871 ft 363 kts 245°
2026-05-09 03:03 35.44494 -93.53909 35872 ft 363 kts 245°
2026-05-09 03:03 35.42035 -93.59313 35870 ft 363 kts 245°
2026-05-09 03:04 35.39563 -93.64738 35865 ft 363 kts 245°
2026-05-09 03:04 35.37095 -93.70144 35867 ft 364 kts 245°
2026-05-09 03:05 35.34622 -93.75552 35863 ft 364 kts 245°
2026-05-09 03:05 35.32159 -93.80929 35862 ft 364 kts 245°
2026-05-09 03:06 35.29666 -93.86366 35857 ft 365 kts 245°
2026-05-09 03:06 35.27181 -93.91775 35860 ft 365 kts 245°
2026-05-09 03:07 35.24694 -93.97179 35868 ft 366 kts 245°
2026-05-09 03:07 35.22185 -94.02625 35876 ft 366 kts 245°
2026-05-09 03:08 35.19686 -94.08038 35887 ft 367 kts 245°
2026-05-09 03:08 35.17173 -94.13472 35892 ft 367 kts 245°
2026-05-09 03:09 35.14659 -94.18902 35901 ft 368 kts 245°
2026-05-09 03:09 35.12126 -94.24365 35905 ft 369 kts 245°
2026-05-09 03:10 35.09598 -94.29807 35900 ft 370 kts 244°
2026-05-09 03:10 35.07046 -94.35293 35892 ft 370 kts 244°
2026-05-09 03:11 35.04513 -94.40730 35900 ft 370 kts 244°
2026-05-09 03:11 35.01401 -94.47398 35906 ft 372 kts 244°
2026-05-09 03:12 34.98292 -94.54050 35926 ft 373 kts 244°
2026-05-09 03:12 34.95708 -94.59566 35927 ft 374 kts 244°
2026-05-09 03:13 34.91837 -94.67816 35921 ft 375 kts 244°
2026-05-09 03:13 34.89237 -94.73349 35909 ft 376 kts 244°
2026-05-09 03:14 34.86642 -94.78863 35900 ft 377 kts 244°
2026-05-09 03:14 34.83945 -94.84354 35888 ft 379 kts 239°
2026-05-09 03:15 34.80634 -94.89417 35877 ft 385 kts 232°
2026-05-09 03:15 34.76693 -94.93862 35877 ft 390 kts 226°
2026-05-09 03:16 34.72557 -94.98072 35879 ft 390 kts 226°
2026-05-09 03:16 34.68396 -95.02326 35871 ft 390 kts 226°
2026-05-09 03:17 34.64230 -95.06574 35872 ft 390 kts 226°
2026-05-09 03:17 34.60085 -95.10791 35870 ft 390 kts 226°